International Skating Union - Official Site

ISU World Junior Speed Skating Championships 2017
February 17-19, 2017

Draw | Lap Times | Index

Referee: Roar  Eriksen  (NOR)
Starter: Stefan  HERRMANN  (GER)
StartTime: EndTime: Air Temp: Ice Temp: Humidity:
12:59 13:07 3.6℃ -3.5℃ 93%
Result Mass Start Final Ladies 
Rankings as of Feb 19 2017 1:32PM
Rank: No.: Name: Nation: Sprint Points: Time: Behind:
1 135 Elisa  Dul NED NED 30 6:54.80
2 136 Sanne  In 't Hof NED NED 21 6:55.20 0.40
3 109 Béatrice  Lamarche CAN CAN 10 6:56.69 1.89
4 118 Lea-Sophie  Scholz GER GER 5 7:04.11 9.31
5 119 Tabea  Theurich GER GER 3 7:03.04 8.24
6 141 Ragne  Wiklund NOR NOR 6:57.31 2.51
7 131 Miryeong  Jeon KOR KOR 6:57.43 2.63
8 150 Kristina  Silaeva RUS RUS 6:57.48 2.68
9 107 Véronique  Déry CAN CAN 6:57.49 2.69
10 132 Ha Eun  Kim KOR KOR 6:57.57 2.77
11 120 Noemi  Bonazza ITA ITA 6:57.73 2.93
12 153 Franchesca  Bell USA USA 6:57.85 3.05
13 123 Kanako  Iijima JPN JPN 6:58.23 3.43
14 152 Jasmin  Güntert SUI SUI 6:58.30 3.50
15 111 Weiping  Gan CHN CHN 6:58.59 3.79
16 103 Anna  Kovaleva BLR BLR 6:59.65 4.85
17 101 Viola   Feichtner AUT AUT 7:00.76 5.96
18 116 Natálie  Kerschbaummayr CZE CZE 7:01.31 6.51
19 144 Natalia  Jabrzyk POL POL 7:03.69 8.89
20 129 Yelizaveta  Kuznetsova KAZ KAZ 7:03.81 9.01
21 154 Hannah  Bosman USA USA 7:24.81 30.01
22 122 Deborah  Grisenti ITA ITA 7:39.14 44.34
23 128 Mariya  Gromova KAZ KAZ 7:06.30 11.50
24 139 Ane By  Farstad NOR NOR 7:06.43 11.63
25 145 Olga   Kaczmarek POL POL 7:06.55 11.75
26 106 Yauheniya   Varabyova BLR BLR 2:30.77 -264.03
27 125 Moe  Kitahara JPN JPN DQ
27 113 Nan  Sun CHN CHN DQ